When you browse on this site, cookies collect data to enhance your experience and personalize the content and advertising you see.
Visit our Privacy Policy to learn more. By continuing to use the site, you agree to this use of cookies and data.
  • In Italy
  • List of Countries
  • For 7 days
  • Water Temperature
  • Satellite Maps
  • Weather Map
  • Weather Widgets
  • user-avatar
    Login

    Hourly Weather Mahilyow

    Today, 20 April, Saturday

    Time Temperature Precipitation Wind Pressure Humidity
    00:00 +6°C° 0 mm 2 mps 757 mmHg 56%
    01:00 +6°C° 0 mm 2 mps 757 mmHg 57%
    02:00 +6°C° 0 mm 2 mps 757 mmHg 59%
    03:00 +5°C° 0 mm 2 mps 756 mmHg 60%
    04:00 +5°C° 0 mm 2 mps 756 mmHg 60%
    05:00 +5°C° 0 mm 2 mps 756 mmHg 61%
    06:00 +6°C° 0 mm 2 mps 756 mmHg 58%
    07:00 +8°C° 0 mm 2 mps 755 mmHg 54%
    08:00 +10°C° 0 mm 2 mps 755 mmHg 51%
    09:00 +12°C° 0 mm 2 mps 755 mmHg 47%
    10:00 +14°C° 0 mm 2 mps 755 mmHg 43%
    11:00 +15°C° 0 mm 2 mps 755 mmHg 40%
    12:00 +15°C° 0 mm 2 mps 755 mmHg 40%
    13:00 +15°C° 0 mm 2 mps 754 mmHg 40%
    14:00 +16°C° 0 mm 2 mps 754 mmHg 40%
    15:00 +15°C° 0 mm 2 mps 754 mmHg 43%
    16:00 +15°C° 0 mm 1 mps 753 mmHg 47%
    17:00 +14°C° 0 mm 1 mps 753 mmHg 50%
    18:00 +13°C° 0.5 mm 1 mps 753 mmHg 60%
    19:00 +12°C° 0.5 mm 1 mps 753 mmHg 69%
    20:00 +10°C° 0.5 mm 1 mps 753 mmHg 78%
    21:00 +10°C° 1.2 mm 1 mps 753 mmHg 83%
    22:00 +9°C° 1.2 mm 1 mps 753 mmHg 87%
    23:00 +9°C° 1.2 mm 1 mps 753 mmHg 91%

    Tomorrow, 21 April, Sunday

    Time Temperature Precipitation Wind Pressure Humidity
    00:00 +9°C° 0.6 mm 1 mps 753 mmHg 92%
    01:00 +8°C° 0.6 mm 1 mps 753 mmHg 93%
    02:00 +8°C° 0.6 mm 1 mps 753 mmHg 94%
    03:00 +8°C° 0.2 mm 1 mps 752 mmHg 95%
    04:00 +7°C° 0.2 mm 1 mps 752 mmHg 95%
    05:00 +7°C° 0.2 mm 1 mps 752 mmHg 96%
    06:00 +8°C° 0.5 mm 1 mps 752 mmHg 93%
    07:00 +8°C° 0.5 mm 1 mps 752 mmHg 90%
    08:00 +8°C° 0.5 mm 1 mps 753 mmHg 88%
    09:00 +9°C° 0.2 mm 2 mps 753 mmHg 81%
    10:00 +11°C° 0.2 mm 3 mps 753 mmHg 74%
    11:00 +12°C° 0.2 mm 3 mps 753 mmHg 67%
    12:00 +13°C° 0.3 mm 4 mps 753 mmHg 59%
    13:00 +14°C° 0.3 mm 5 mps 753 mmHg 52%
    14:00 +15°C° 0.3 mm 6 mps 753 mmHg 45%
    15:00 +15°C° 0 mm 5 mps 753 mmHg 45%
    16:00 +14°C° 0 mm 5 mps 753 mmHg 45%
    17:00 +14°C° 0 mm 5 mps 753 mmHg 45%
    18:00 +13°C° 0 mm 5 mps 754 mmHg 49%
    19:00 +11°C° 0 mm 4 mps 754 mmHg 54%
    20:00 +8°C° 0 mm 4 mps 755 mmHg 58%
    21:00 +9°C° 0 mm 3 mps 755 mmHg 60%
    22:00 +8°C° 0 mm 3 mps 755 mmHg 62%
    23:00 +7°C° 0 mm 3 mps 756 mmHg 64%

    Day after tomorrow, 22 April, Monday

    Time Temperature Precipitation Wind Pressure Humidity
    00:00 +7°C° 0 mm 3 mps 756 mmHg 66%
    01:00 +5°C° 0 mm 3 mps 756 mmHg 67%
    02:00 +5°C° 0 mm 3 mps 757 mmHg 69%
    03:00 +5°C° 0 mm 2 mps 757 mmHg 69%
    04:00 +5°C° 0 mm 2 mps 757 mmHg 69%
    05:00 +5°C° 0 mm 2 mps 757 mmHg 69%
    06:00 +7°C° 0 mm 2 mps 758 mmHg 64%
    07:00 +9°C° 0 mm 3 mps 758 mmHg 59%
    08:00 +11°C° 0 mm 3 mps 758 mmHg 53%
    09:00 +12°C° 0 mm 3 mps 758 mmHg 48%
    10:00 +13°C° 0 mm 3 mps 759 mmHg 42%
    11:00 +14°C° 0 mm 4 mps 759 mmHg 36%
    12:00 +14°C° 0 mm 4 mps 759 mmHg 36%
    13:00 +14°C° 0 mm 3 mps 758 mmHg 37%
    14:00 +14°C° 0 mm 3 mps 758 mmHg 37%
    15:00 +14°C° 0 mm 3 mps 758 mmHg 38%
    16:00 +14°C° 0 mm 3 mps 758 mmHg 38%
    17:00 +14°C° 0 mm 3 mps 758 mmHg 39%
    18:00 +13°C° 0 mm 2 mps 758 mmHg 44%
    19:00 +12°C° 0 mm 2 mps 758 mmHg 49%
    20:00 +9°C° 0 mm 2 mps 758 mmHg 55%
    21:00 +10°C° 0 mm 1 mps 759 mmHg 56%
    22:00 +9°C° 0 mm 1 mps 759 mmHg 58%
    23:00 +8°C° 0 mm 1 mps 759 mmHg 59%

    23 April, Tuesday

    Time Temperature Precipitation Wind Pressure Humidity
    00:00 +8°C° 0 mm 1 mps 759 mmHg 60%
    01:00 +8°C° 0 mm 1 mps 759 mmHg 61%
    02:00 +7°C° 0 mm 1 mps 759 mmHg 62%
    03:00 +7°C° 0 mm 1 mps 760 mmHg 62%
    04:00 +7°C° 0 mm 1 mps 760 mmHg 62%
    05:00 +7°C° 0 mm 1 mps 760 mmHg 63%
    06:00 +9°C° 0 mm 1 mps 760 mmHg 58%
    07:00 +10°C° 0 mm 2 mps 760 mmHg 53%
    08:00 +12°C° 0 mm 2 mps 760 mmHg 49%
    09:00 +14°C° 0 mm 2 mps 760 mmHg 44%
    10:00 +14°C° 0 mm 3 mps 760 mmHg 39%
    11:00 +16°C° 0 mm 3 mps 760 mmHg 35%
    12:00 +16°C° 0 mm 3 mps 760 mmHg 35%
    13:00 +17°C° 0 mm 3 mps 760 mmHg 35%
    14:00 +17°C° 0 mm 3 mps 759 mmHg 35%
    15:00 +17°C° 0 mm 3 mps 759 mmHg 36%
    16:00 +17°C° 0 mm 3 mps 759 mmHg 37%
    17:00 +17°C° 0 mm 3 mps 758 mmHg 38%
    18:00 +14°C° 0 mm 3 mps 759 mmHg 44%
    19:00 +13°C° 0 mm 2 mps 759 mmHg 50%
    20:00 +10°C° 0 mm 2 mps 759 mmHg 56%
    21:00 +10°C° 0 mm 2 mps 759 mmHg 57%
    22:00 +10°C° 0 mm 2 mps 759 mmHg 59%
    23:00 +9°C° 0 mm 2 mps 759 mmHg 60%

    24 April, Wednesday

    Time Temperature Precipitation Wind Pressure Humidity
    00:00 +10°C° 0 mm 1 mps 759 mmHg 61%
    01:00 +9°C° 0 mm 1 mps 759 mmHg 62%
    02:00 +8°C° 0 mm 1 mps 760 mmHg 64%
    03:00 +8°C° 0 mm 1 mps 760 mmHg 64%
    04:00 +8°C° 0 mm 1 mps 760 mmHg 64%
    05:00 +8°C° 0 mm 1 mps 760 mmHg 64%
    06:00 +10°C° 0 mm 1 mps 760 mmHg 60%
    07:00 +12°C° 0 mm 2 mps 760 mmHg 55%
    08:00 +14°C° 0 mm 2 mps 760 mmHg 51%
    09:00 +14°C° 0 mm 3 mps 760 mmHg 47%
    10:00 +16°C° 0 mm 3 mps 760 mmHg 43%
    11:00 +17°C° 0 mm 4 mps 760 mmHg 39%
    12:00 +17°C° 0 mm 4 mps 759 mmHg 39%
    13:00 +18°C° 0 mm 4 mps 759 mmHg 39%
    14:00 +17°C° 0 mm 5 mps 759 mmHg 38%
    15:00 +18°C° 0 mm 4 mps 759 mmHg 39%
    16:00 +18°C° 0 mm 4 mps 758 mmHg 40%
    17:00 +18°C° 0 mm 4 mps 758 mmHg 41%
    18:00 +15°C° 0 mm 4 mps 758 mmHg 48%
    19:00 +13°C° 0 mm 3 mps 758 mmHg 54%
    20:00 +11°C° 0 mm 3 mps 758 mmHg 60%
    21:00 +11°C° 0 mm 3 mps 759 mmHg 62%
    22:00 +10°C° 0 mm 3 mps 759 mmHg 63%
    23:00 +10°C° 0 mm 3 mps 759 mmHg 65%

    25 April, Thursday

    Time Temperature Precipitation Wind Pressure Humidity
    00:00 +9°C° 0 mm 3 mps 759 mmHg 67%
    01:00 +8°C° 0 mm 3 mps 759 mmHg 69%
    02:00 +8°C° 0 mm 2 mps 759 mmHg 71%
    03:00 +8°C° 0 mm 2 mps 759 mmHg 72%
    04:00 +7°C° 0 mm 2 mps 759 mmHg 73%
    05:00 +7°C° 0 mm 2 mps 759 mmHg 75%
    06:00 +9°C° 0 mm 3 mps 759 mmHg 69%
    07:00 +10°C° 0 mm 3 mps 759 mmHg 63%
    08:00 +12°C° 0 mm 4 mps 759 mmHg 57%
    09:00 +14°C° 0 mm 4 mps 759 mmHg 52%
    10:00 +15°C° 0 mm 4 mps 759 mmHg 46%
    11:00 +18°C° 0 mm 4 mps 759 mmHg 41%
    12:00 +18°C° 0 mm 4 mps 758 mmHg 40%
    13:00 +19°C° 0 mm 4 mps 758 mmHg 39%
    14:00 +19°C° 0 mm 4 mps 757 mmHg 37%
    15:00 +19°C° 0 mm 4 mps 757 mmHg 39%
    16:00 +19°C° 0 mm 3 mps 757 mmHg 40%
    17:00 +19°C° 0 mm 3 mps 756 mmHg 41%
    18:00 +17°C° 0 mm 3 mps 756 mmHg 48%
    19:00 +14°C° 0 mm 3 mps 756 mmHg 55%
    20:00 +12°C° 0 mm 3 mps 756 mmHg 62%
    21:00 +11°C° 0 mm 3 mps 756 mmHg 64%
    22:00 +11°C° 0 mm 3 mps 756 mmHg 66%
    23:00 +10°C° 0 mm 3 mps 756 mmHg 69%
    Show more